"Pseudo-MPEC" for CEJLYX2

Created 2026 Apr 17 11:35:13 UT using Find_Orb

Click here for an explanation of pseudo-MPECs

 
 Astrometry: 
     CEJLYX2*1C2026 04 17.33383214 26 22.362+34 13 05.12   ~4H8o 21.05GVNEOCPG96
     CEJLYX2 1C2026 04 17.33905214 26 22.585+34 13 35.58   ~4H8o 21.40GVNEOCPG96
     CEJLYX2 1C2026 04 17.34469414 26 22.794+34 14 08.23   ~4H8o 21.04GVNEOCPG96
     CEJLYX2 1C2026 04 17.35090914 26 23.053+34 14 44.41   ~4H8o 21.34GVNEOCPG96
     CEJLYX2 1C2026 04 17.43795814 26 26.930+34 23 06.11   ~4HB5 21.11GVNEOCPI52
     CEJLYX2 1C2026 04 17.43992814 26 27.038+34 23 17.45   ~4HB5 20.68GVNEOCPI52
     CEJLYX2 1C2026 04 17.44190414 26 27.139+34 23 28.54   ~4HB5 20.78GVNEOCPI52
     CEJLYX2 1C2026 04 17.44388014 26 27.226+34 23 39.73   ~4HB5 20.96GVNEOCPI52

Station data:
(G96) Mt. Lemmon Survey  (N32.442729 W110.788720)  US/Arizona.  Observer E.
   J. Christensen. Measurers T. Beuden, V. F. Carvajal, D. Fay, J. B.
   Fazekas, D. C. Fuls, A. R. Gibbs, A. D. Grauer, H. Gröller, J. K. Hogan,
   R. A. Kowalski, S. M. Larson, G. J. Leonard, D. Rankin, R. L. Seaman, F.
   C. Shelly, K. W. Wierzchoś. 1.5-m reflector + 10K CCD.
(I52) Steward Observatory, Mt. Lemmon Station  (N32.442570 W110.788920)
   US/Arizona. Measurers T. Beuden, V. F. Carvajal, D. Fay, J. B. Fazekas, D.
   C. Fuls, A. R. Gibbs, A. D. Grauer, H. Gröller, J. K. Hogan, R. A.
   Kowalski, S. M. Larson, G. J. Leonard, D. Rankin, R. L. Seaman, F. C.
   Shelly, K. W. Wierzchoś. 1.0-m prime focus + CCD.

Orbital elements:  CEJLYX2
   Perihelion 2026 Jun 8.762569 +/- 47.7 TT = 18:18:05.9 (JD 2461200.262569)
Epoch 2026 Apr 17.0 TT = JDT 2461147.5   Earth MOID: 0.1202   Ju: 0.0475
M 358.242241356 +/- 28              Ve: 0.0048   Sa: 0.4032      AutoNEOCP
n   0.033314500 +/- 0.13            Peri.  210.738473 +/- 100
a   9.565635880 +/- 24.9            Node    79.363726 +/- 53
e   0.92988856 +/- 0.268            Incl.   10.760121 +/- 14
P  29.58495                H 22.42  G  0.15   U 11.4  SR
q 0.670660462 +/- 0.197    Q 18.46061129 +/- 9.32         (J2000 ecliptic)
From 8 observations 2026 Apr. 17 (2.6 hr); mean residual 0".21
Residuals in arcseconds: 
260417 G96  .25+  .34-    260417 G96  .32-  .36+    260417 I52  .14+  .11-    
260417 G96  .22+  .02-    260417 I52  .18-  .19+    260417 I52  .07+  .30-    
260417 G96  .20-  .05+    260417 I52  .02+  .18+    

Ephemerides (geocentric):
Date (UTC) HH   RA             Dec           delta  r     elong  mag " sig PA
---- --------  ------------   ------------  ------ ------ -----  --- --------
2026 04 17 12  14 26 31.978   +34 29 09.81  .25151 1.1917 133.8 21.3 42.3 100
2026 04 17 13  14 26 34.443   +34 33 14.01  .25101 1.1912 133.7 21.3 54.1 102
2026 04 17 14  14 26 36.918   +34 37 19.07  .25051 1.1906 133.6 21.3 66.4 105
2026 04 17 15  14 26 39.406   +34 41 24.99  .25001 1.1900 133.5 21.3 79.2 107
2026 04 17 16  14 26 41.904   +34 45 31.78  .24950 1.1894 133.5 21.3 92.7 109
2026 04 17 17  14 26 44.414   +34 49 39.45  .24900 1.1888 133.4 21.3  107 112
2026 04 17 18  14 26 46.936   +34 53 47.98  .24850 1.1882 133.3 21.3  122 114
2026 04 17 19  14 26 49.470   +34 57 57.40  .24800 1.1877 133.3 21.3  138 117
2026 04 17 20  14 26 52.016   +35 02 07.70  .24750 1.1871 133.2 21.3  155 120
2026 04 17 21  14 26 54.573   +35 06 18.90  .24700 1.1865 133.1 21.3  174 122
2026 04 17 22  14 26 57.143   +35 10 30.98  .24650 1.1859 133.0 21.3  194 125
2026 04 17 23  14 26 59.725   +35 14 43.97  .24600 1.1853 132.9 21.3  215 128
2026 04 18 00  14 27 02.319   +35 18 57.86  .24550 1.1847 132.9 21.3  238 130
2026 04 18 01  14 27 04.926   +35 23 12.65  .24501 1.1842 132.8 21.3  263 132
2026 04 18 02  14 27 07.545   +35 27 28.36  .24451 1.1836 132.7 21.3  290 135
2026 04 18 03  14 27 10.177   +35 31 44.99  .24401 1.1830 132.6 21.3  319 137
2026 04 18 04  14 27 12.822   +35 36 02.53  .24352 1.1824 132.6 21.3  349 139
2026 04 18 05  14 27 15.480   +35 40 21.01  .24302 1.1818 132.5 21.3  382 140
2026 04 18 06  14 27 18.151   +35 44 40.41  .24252 1.1813 132.4 21.3  418 142
2026 04 18 07  14 27 20.835   +35 49 00.76  .24203 1.1807 132.3 21.3  455 144
2026 04 18 08  14 27 23.532   +35 53 22.04  .24153 1.1801 132.2 21.3  495 145
2026 04 18 09  14 27 26.243   +35 57 44.27  .24104 1.1795 132.2 21.2  537 146
2026 04 18 10  14 27 28.968   +36 02 07.45  .24055 1.1789 132.1 21.2  582 147
2026 04 18 11  14 27 31.706   +36 06 31.59  .24005 1.1783 132.0 21.2  630 148
2026 04 18 12  14 27 34.459   +36 10 56.69  .23956 1.1778 131.9 21.2  680 149
2026 04 18 13  14 27 37.225   +36 15 22.75  .23907 1.1772 131.9 21.2  733 150
2026 04 18 14  14 27 40.005   +36 19 49.78  .23857 1.1766 131.8 21.2  789 151
2026 04 18 15  14 27 42.800   +36 24 17.80  .23808 1.1760 131.7 21.2  848 152
2026 04 18 16  14 27 45.609   +36 28 46.79  .23759 1.1754 131.6 21.2  910 152
2026 04 18 17  14 27 48.433   +36 33 16.77  .23710 1.1748 131.5 21.2  976 153
2026 04 18 18  14 27 51.271   +36 37 47.74  .23661 1.1743 131.4 21.2 1045 154
2026 04 18 19  14 27 54.125   +36 42 19.70  .23612 1.1737 131.4 21.2 1118 154
2026 04 18 20  14 27 56.993   +36 46 52.67  .23563 1.1731 131.3 21.2 1195 155
2026 04 18 21  14 27 59.876   +36 51 26.65  .23514 1.1725 131.2 21.2 1276 155
2026 04 18 22  14 28 02.775   +36 56 01.64  .23465 1.1719 131.1 21.2 1361 156
2026 04 18 23  14 28 05.689   +37 00 37.64  .23417 1.1714 131.0 21.2 1451 156
2026 04 19 00  14 28 08.619   +37 05 14.67  .23368 1.1708 130.9 21.2 1545 156
2026 04 19 01  14 28 11.565   +37 09 52.73  .23319 1.1702 130.9 21.2 1645 157
2026 04 19 02  14 28 14.527   +37 14 31.82  .23271 1.1696 130.8 21.2 1750 157
2026 04 19 03  14 28 17.504   +37 19 11.95  .23222 1.1690 130.7 21.2 1861 157
2026 04 19 04  14 28 20.498   +37 23 53.12  .23174 1.1684 130.6 21.2 1978 158
2026 04 19 05  14 28 23.509   +37 28 35.35  .23125 1.1679 130.5 21.2 2102 158
2026 04 19 06  14 28 26.536   +37 33 18.63  .23077 1.1673 130.4 21.2 2233 158
2026 04 19 07  14 28 29.579   +37 38 02.97  .23028 1.1667 130.3 21.2 2371 158
2026 04 19 08  14 28 32.640   +37 42 48.38  .22980 1.1661 130.3 21.2 2518 159
2026 04 19 09  14 28 35.718   +37 47 34.86  .22932 1.1655 130.2 21.2 2674 159
2026 04 19 10  14 28 38.813   +37 52 22.42  .22883 1.1649 130.1 21.2 2840 159
2026 04 19 11  14 28 41.926   +37 57 11.06  .22835 1.1644 130.0 21.2 3016 159